Preview of NWS' New Version of Forecast
This preview is not operational and should not be used for support decisions.

Regional Weather Roundup (RWR)

Issued by National Weather Service (NWS)

                            
000
ASUS44 KMEG 211800
RWRTN 
TENNESSEE HOURLY STATE WEATHER ROUNDUP
NATIONAL WEATHER SERVICE MEMPHIS TN
100 PM CDT SAT SEP 21 2019

TNZ002-004-019-021-049-052-054-088>092-211900-
WEST TENNESSEE
  
CITY           SKY/WX    TMP DP  RH WIND       PRES   REMARKS
MEMPHIS INTL   FAIR      90  59  35 S13       30.19F                  
JACKSON        FAIR      89  61  38 S13G21    30.22F                  
DYERSBURG      FAIR      87  59  38 S9G16     30.20F                  
$$

TNZ008-025-027-028-033-062-065-066-211900-
NORTH MIDDLE TENNESSEE
  
CITY           SKY/WX    TMP DP  RH WIND       PRES   REMARKS
NASHVILLE      FAIR      89  52  28 VRB5      30.24F                  
CLARKSVILLE    FAIR      89  56  32 S15       30.21F                  
SMYRNA         FAIR      87  56  34 VRB3      30.25F                  
CROSSVILLE     FAIR      80  53  39 VRB5      30.32F                  
$$

TNZ061-075-076-078-094-096-097-211900-
SOUTH MIDDLE TENNESSEE
  
CITY           SKY/WX    TMP DP  RH WIND       PRES   REMARKS
$$

TNZ017-018-042-046-047-211900-
NORTHEAST TENNESSEE
  
CITY           SKY/WX    TMP DP  RH WIND       PRES   REMARKS
TRI CITIES     FAIR      84  61  45 NE3       30.30F                  
$$

TNZ012-013-036-069-073-074-211900-
CENTRAL EAST TENNESSEE
  
CITY           SKY/WX    TMP DP  RH WIND       PRES   REMARKS
KNOXVILLE      FAIR      84  55  36 VRB5      30.27F                  
OAK RIDGE      FAIR      84  57  39 SW5       30.29F                  
$$

TNZ083-085-099-211900-
SOUTHEAST TENNESSEE
  
CITY           SKY/WX    TMP DP  RH WIND       PRES   REMARKS
CHATTANOOGA    FAIR      86  56  35 SW6       30.27F                  
$$

SKY/WX REPORTED AS FAIR MEANS FEW OR NO CLOUDS BELOW
12 THOUSAND FEET.